SCP
0 0 0 0 0 0 0 0 0 0 0 0 0 0 0 0 0 0 0 0 0 0 0 0 0 0 0 0 0 0 0 0 0 0 0 0 0 0 0 0 0 0 0
0 0 0 0 0 0 0 0 0 0 0 0 0 0 0 0 0 0 0 0 0 0 0 0 0 0 0 0 0 0 0 0 0 0 0 0 0 0 0 0 0 0 0
0 0 0 0 0 0 0 0 0 0 0 0 0 0 0 0 0 0 0 0 0 0 0 0 0 0 0 0 0 0 0 0 0 0 0 0 0 0 0 0 0 0 0
0 0 0 0 0 0 0 0 0 0 0 0 0 0 0 0 0 0 0 0 0 0 0 0 0 0 0 0 0 0 0 0 0 0 0 0 0 0 0 0 0 0 0
0 0 0 0 0 0 0 0 0 0 0 0 0 0 0 0 0 0 0 0 0 0 0 0 0 0 0 0 0 0 0 0 0 0 0 0 0 0 0 0 0 0 0
0 0 0 0 0 0 0 0 0 0 0 0 0 0 0 0 0 0 0 0 0 0 0 0 0 0 0 0 0 0 0 0 0 0 0 0 0 0 0 0 0 0 0
0 0 0 0 0 0 0 0 0 0 0 0 0 0 0 0 0 0 0 0 0 0 0 0 0 0 0 0 0 0 0 0 0 0 0 0 0 0 0 0 0 0 0
0 0 0 0 0 0 0 0 0 0 0 0 0 0 0 0 0 0 0 0 0 0 0 0 0 0 0 0 0 0 0 0 0 0 0 0 0 0 0 0 0 0 0
0 0 0 0 0 0 0 0 0 0 0 0 0 0 0 0 0 0 0 0 0 0 0 0 0 0 0 0 0 0 0 0 0 0 0 0 0 0 0 0 0 0 0
0 0 0 0 0 0 0 0 0 0 0 0 0 0 0 0 0 0 0 0 0 0 0 0 0 0 0 0 0 0 0 0 0 0 0 0 0 0 0 0 0 0 0
0 0 0 0 0 0 0 0 0 0 0 0 0 0 0 0 0 0 0 0 0 0 0 0 0 0 0 0 0 0 0 0 0 0 0 0 0 0 0 0 0 0 0
0 0 0 0 0 0 0 0 0 0 0 0 0 0 0 0 0 0 0 0 0 0 0 0 0 0 0 0 0 0 0 0 0 0 0 0 0 0 0 0 0 0 0
0 0 0 0 0 0 0 0 0 0 0 0 0 0 0 0 0 0 0 0 0 0 0 0 0 0 0 0 0 0 0 0 0 0 0 0 0 0 0 0 0 0 0
0 0 0 0 0 0 0 0 0 0 0 0 0 0 0 0 0 0 0 0 0 0 0 0 0 0 0 0 0 0 0 0 0 0 0 0 0 0 0 0 0 0 0
0 0 0 0 0 0 0 0 0 0 0 0 0 0 0 0 0 0 0 0 0 0 0 0 0 0 0 0 0 0 0 0 0 0 0 0 0 0 0 0 0 0 0
0 0 0 0 0 0 0 0 -0 -0 -0 0 0 0 0 0 0 0 0 0 0 0 0 0 0 0 0 0 0 0 0 0 0 0 0 0 0 0 0 0 0 0 0
0 0 0 0 -0 -0 -0 -0 0 0 0 0 0 0 0 0 0 0 0 0 0 0 0 0 0 0 0 0 0 0 0 0 0 0 0 0 0 0 0 0 0 0 0
0 0 -0 -0 -0 -0 -0 0 0 0 0 0 0 0 0 0 0 0 0 0 0 0 0 0 0 0 0 0 0 0 0 0 0 0 0 0 0 0 0 0 0 0 0
0 0 0 0 0 0 0 0 0 0 0 0 0 0 0 0 0 0 0 0 0 0 0 0 0 0 0 0 0 0 0 0 0 0 0 0 0 0 0 0 0 0 0
0 0 0 0 0 0 0 0 0 0 0 0 0 0 0 0 0 0 0 0 0 0 0 0 0 0 0 0 0 0 0 0 0 0 0 0 0 0 0 0 0 0 0
0 0 0 0 0 0 0 0 0 0 0 0 0 0 0 0 0 0 0 0 0 0 0 0 0 0 0 0 0 0 0 0 0 0 0 0 0 0 0 0 0 0 0
0 0 0 0 0 0 0 0 0 0 0 0 0 0 0 0 0 0 0 0 0 0 0 0 0 0 0 0 0 0 0 0 0 0 0 0 0 0 0 0 0 0 0
0 0 0 0 0 0 0 0 0 0 0 0 0 0 0 0 0 0 0 0 0 0 0 0 0 0 0 0 0 0 0 0 0 0 0 0 0 0 0 0 0 0 0
0 0 0 0 0 0 0 0 0 0 0 0 0 0 0 0 0 0 0 0 0 0 0 0 0 0 0 0 0 0 0 0 0 0 0 0 0 0 0 0 0 0 0
0 0 0 0 0 0 0 0 0 0 0 0 0 0 0 0 0 0 0 0 0 0 0 0 0 0 0 0 0 0 0 0 0 0 0 0 0 0 0 0 0 0 0
0 0 0 0 0 0 0 0 0 0 0 0 0 0 0 0 0 0 0 0 0 0 0 0 0 0 0 0 0 0 0 0 0 0 0 0 0 0 0 0 0 0 0
Wind_Speed
20 16 18 20 20 20 21 21 21 21 18 15 15 15 15 13 13 13 15 17 16 16 15 11 12 11 10 10 10 9 9 8 6 7 8 9 11 10 8 8 9 10 11
16 15 15 17 20 22 22 22 22 22 22 17 15 13 13 12 13 12 15 18 18 17 15 16 12 12 11 12 12 11 8 7 7 6 6 6 6 8 8 8 9 10 10
13 12 14 17 18 21 23 20 23 23 23 20 13 11 11 10 12 15 15 18 19 19 18 18 15 14 13 12 13 13 13 9 8 8 7 6 5 4 6 10 9 10 10
7 8 10 14 18 19 18 20 21 21 21 21 18 20 17 17 17 14 14 16 20 20 20 19 18 16 14 14 14 14 12 12 9 8 9 9 7 6 6 6 8 10 12
8 6 7 11 14 15 16 17 18 20 20 21 21 21 20 17 13 14 17 18 18 21 21 20 18 17 15 16 15 14 14 12 11 9 8 9 9 11 9 10 9 9 10
11 8 6 7 10 12 14 15 17 19 20 21 22 24 24 21 18 18 16 15 14 16 22 21 19 18 16 17 16 15 16 14 14 11 10 9 9 8 10 12 12 12 11
13 12 10 7 7 10 14 15 18 20 21 22 23 24 25 23 23 20 18 16 14 15 20 20 20 18 18 17 16 16 16 16 16 14 11 10 11 10 10 12 13 15 13
15 14 12 9 7 8 11 15 18 19 19 21 22 21 22 17 16 19 17 17 14 15 17 20 20 20 19 18 16 14 15 14 15 15 15 11 11 11 11 12 12 14 14
17 15 13 11 9 7 8 12 15 16 17 19 19 19 20 19 18 17 17 15 15 13 18 19 20 20 20 19 18 14 16 14 15 15 15 13 11 11 11 11 12 13 15
16 15 13 12 10 9 7 7 11 13 14 15 16 14 17 18 17 16 19 18 17 16 17 18 20 20 20 19 18 15 15 16 15 12 14 14 12 11 11 12 12 13 14
15 14 13 12 11 9 7 6 6 9 10 12 14 15 15 16 17 17 18 17 17 17 18 18 19 20 20 20 19 18 17 17 16 15 15 16 15 12 12 12 12 13 13
12 12 12 12 12 11 9 7 6 7 8 9 11 13 14 14 16 17 17 17 17 17 18 18 19 20 20 20 20 20 19 18 18 17 16 17 13 16 14 12 14 14 15
12 13 13 13 13 12 10 9 7 7 7 8 10 12 13 14 16 16 16 16 17 17 18 19 20 19 19 20 20 19 18 18 18 17 16 16 15 17 14 15 14 13 13
12 13 14 14 14 13 12 11 9 7 7 7 10 12 13 13 14 14 14 15 16 17 17 18 19 18 17 18 18 17 17 17 16 16 16 16 16 17 16 14 15 14 15
13 15 16 16 15 15 13 12 11 9 7 8 10 12 11 11 12 13 13 14 15 16 16 17 18 18 16 16 17 17 17 16 16 16 16 17 19 21 18 14 14 14 14
16 17 17 17 16 16 15 14 13 11 9 10 11 10 10 11 12 13 13 14 15 15 16 17 18 19 15 23 29 21 17 16 16 16 16 16 19 22 26 27 26 22 17
17 18 18 17 16 16 15 14 14 12 10 10 10 10 10 11 12 12 13 14 14 15 16 17 18 20 21 28 30 31 18 17 16 16 14 13 13 18 14 19 24 23 26
19 18 17 17 16 16 14 14 13 12 11 11 11 10 9 11 11 12 13 13 13 14 14 16 18 19 20 28 30 30 22 17 16 16 16 15 14 13 14 13 15 16 16
18 17 16 16 16 15 14 14 14 13 12 12 11 10 8 10 11 12 13 12 12 13 13 14 17 18 19 26 29 28 15 15 17 16 15 15 15 18 20 15 16 17 14
16 15 14 15 15 14 13 13 14 14 13 12 13 12 11 11 12 12 12 11 11 12 12 14 15 17 17 22 27 29 13 14 13 13 13 19 19 19 19 15 14 16 13
16 14 13 13 14 14 13 14 15 14 13 13 13 13 12 12 12 12 11 10 10 11 12 13 13 15 17 20 25 28 14 13 12 10 10 10 17 19 19 18 13 15 15
14 13 12 14 14 14 13 15 16 15 14 14 14 14 13 11 9 11 10 9 10 11 11 12 12 11 13 17 20 27 25 19 12 10 9 9 15 16 18 14 14 18 16
13 12 13 15 15 14 13 15 16 15 15 15 15 14 13 11 10 10 10 9 8 9 9 9 10 10 9 12 22 24 26 26 15 10 13 13 15 14 12 14 15 14 9
13 13 14 15 16 15 15 15 16 14 14 15 14 13 12 11 10 8 8 8 8 9 9 9 9 9 9 9 10 12 14 20 17 12 12 15 15 11 11 11 9 7 7
13 13 14 16 17 17 17 16 15 14 14 14 13 12 11 11 10 9 8 9 10 10 10 9 9 9 9 11 16 12 10 10 10 9 6 6 6 7 7 6 7 6 7
14 14 16 17 18 17 17 16 15 14 13 12 12 10 9 9 9 9 9 12 15 17 19 18 14 11 14 14 17 20 18 17 15 11 7 7 7 7 7 6 6 6 7
Wind_Direction
249 233 218 212 210 208 207 204 203 203 200 200 204 206 210 211 213 213 211 207 206 204 207 210 208 206 211 212 212 216 224 226 230 253 262 258 253 255 252 250 253 255 259
257 236 221 211 209 208 207 206 205 202 202 203 204 208 212 215 214 212 215 212 209 206 206 210 208 206 211 214 213 213 221 225 217 233 266 275 246 223 240 250 255 260 264
271 248 226 219 214 212 209 207 206 204 204 203 202 204 212 218 214 214 214 213 211 209 207 210 210 208 209 212 211 209 216 222 215 217 235 259 279 293 241 247 255 261 264
305 272 243 226 220 219 215 213 210 209 206 201 204 202 205 211 214 212 213 212 211 212 210 210 210 210 209 213 211 210 213 220 227 216 223 236 257 272 287 245 243 252 260
352 314 268 242 231 221 216 216 215 214 209 207 209 211 218 223 221 216 216 214 211 213 211 210 209 210 210 212 211 208 211 214 223 224 221 228 239 238 249 273 276 267 264
359 347 314 263 240 223 216 214 215 217 212 211 212 215 220 222 221 218 216 214 212 211 213 211 210 209 209 209 209 209 211 214 220 225 228 231 234 238 244 263 274 280 280
1 354 342 313 261 229 218 214 215 218 213 213 215 219 223 224 225 223 219 215 214 212 212 208 210 208 208 207 206 208 212 214 218 222 227 231 237 246 255 265 276 280 283
355 346 338 323 297 257 229 220 219 221 216 216 219 222 224 226 230 228 223 220 219 218 213 210 211 209 206 205 204 208 211 214 218 224 227 233 238 241 246 255 271 280 281
346 341 337 333 321 298 258 233 229 228 223 221 221 223 224 225 230 231 229 229 226 221 216 213 213 211 207 204 203 208 210 212 217 222 225 231 238 240 244 249 254 266 279
343 340 338 337 332 322 303 266 242 238 233 227 225 227 227 228 231 231 231 229 228 224 220 216 214 212 208 205 204 207 210 212 216 220 226 231 235 240 243 246 250 252 261
341 340 339 339 338 337 330 306 270 252 243 234 230 230 231 231 231 232 234 232 230 225 223 219 216 213 209 205 205 207 207 212 217 219 224 232 235 240 244 246 249 251 253
344 344 344 345 347 346 342 328 301 272 256 245 239 237 236 233 233 235 235 234 232 228 224 221 218 216 212 207 205 207 207 210 216 220 224 232 233 239 244 247 250 252 253
349 350 350 349 347 343 339 331 314 289 269 252 245 243 240 237 237 237 236 233 231 229 224 221 220 216 212 209 207 207 208 211 216 220 224 230 233 240 243 247 251 253 256
352 351 346 344 340 336 333 329 321 305 281 259 250 248 246 244 244 243 239 236 232 230 227 224 223 219 214 211 208 206 208 212 217 222 226 230 232 239 244 249 253 256 259
347 345 340 335 332 330 327 326 319 310 290 268 259 258 258 255 253 249 244 239 235 232 229 227 225 221 215 211 207 204 206 210 216 223 228 232 235 238 242 244 250 253 257
337 335 331 327 325 323 321 318 315 313 299 279 271 270 265 259 254 251 246 241 236 233 230 228 226 224 218 217 212 205 207 211 216 223 228 234 240 245 249 253 257 259 264
328 325 323 321 318 317 316 312 311 309 300 287 280 275 268 264 258 253 248 243 239 235 231 229 227 229 226 221 218 211 206 212 216 221 227 232 236 242 244 256 264 269 271
321 319 317 315 312 311 311 309 307 304 299 293 288 281 272 269 268 261 254 249 243 237 232 230 229 230 229 224 222 217 212 216 220 223 227 235 240 240 244 250 258 260 263
313 311 312 309 307 308 312 310 305 304 301 297 296 292 276 271 270 265 260 253 246 242 237 234 231 231 231 225 222 218 214 219 224 226 230 235 244 249 251 254 261 267 267
311 312 312 308 306 310 314 308 305 305 305 306 304 301 293 282 276 272 268 259 249 245 240 236 232 232 232 226 222 219 215 219 222 226 229 235 241 248 253 255 262 270 277
312 314 312 308 308 313 312 305 304 305 309 308 304 300 295 289 285 281 272 263 252 247 242 240 235 233 232 229 223 220 212 215 219 223 225 229 238 247 254 259 263 272 283
313 316 313 309 310 313 311 306 305 310 311 307 302 300 299 296 287 281 275 264 254 248 245 242 240 233 230 227 225 223 218 213 218 223 226 231 238 247 256 264 270 280 288
311 313 311 307 307 310 309 304 305 310 308 304 302 302 301 297 289 281 275 266 252 246 244 240 239 235 226 225 223 224 223 221 217 223 229 235 243 252 261 267 275 282 282
313 314 311 307 307 311 309 305 306 306 303 301 302 302 301 298 294 280 268 260 251 245 242 240 238 235 228 219 215 216 222 224 225 226 231 237 246 251 261 267 270 268 269
310 310 306 304 305 308 306 306 307 307 303 301 301 300 297 296 294 283 268 261 252 246 244 244 240 237 232 223 212 206 207 206 208 205 212 220 230 239 245 251 258 263 268
307 306 304 304 306 307 305 306 307 306 303 300 299 299 299 297 291 289 283 259 254 259 252 247 244 244 243 239 224 215 212 208 203 200 208 219 228 238 247 255 262 266 271